Flag for South Africa Weather past 2 weeks in Cape Town, South Africa

Now
41 °F

Fog.


Feels Like: 41 °F
Forecast: 51 / 59 °F
Wind: 2 mph from Northwest

Location: Cape Town International Airport

Current Time: Jul 4, 2015 at 6:26:08 AM

Latest Report: Jul 4, 2015 at 5:00 AM


Visibility: 0 mi

Pressure: 30.12 "Hg

Humidity: 100%

Dew point: 41 °F

Location of Cape TownLocation

Historic Weather in Cape Town — Graph

°F

Cape Town temperature yesterday

Maximum temperature yesterday: 64 °F (at 1:00 PM)
Minimum temperature yesterday: 43 °F (at 3:00 AM)
Average temperature yesterday: 54 °F

Past Weeks' High & Low Weather Summary

 TemperatureHumidityPressure
High72 °F (Jun 20, 1:00 PM)100% (Jun 19, 6:00 AM)30.48 "Hg (Jun 19, 6:00 AM)
Low41 °F (Jun 20, 5:00 AM)41% (Jun 20, 1:00 PM)29.86 "Hg (Jun 23, 9:00 PM)
Average54 °F86%30.21 "Hg
* Reported Jun 19 5:00 AM — Jul 4 5:00 AM, Cape Town, Weather by CustomWeather, © 2015

Note: Actual official high and low records may vary slightly from our data, if they occured in-between our weather recording intervals... More about our weather records

Advertising

Cape Town weather history for previous 24 hours

 ConditionsComfort  
Time TempWeatherWind HumidityBarometerVisibility
5:00 AM
Sat, Jul 4
41 °FFog.2 mph100%30.12 "Hg0 mi
4:00 AM45 °FFog.3 mph93%30.12 "Hg0 mi
3:00 AM46 °FClear.2 mph100%30.12 "Hg10 mi
2:00 AM50 °FClear.5 mph100%30.12 "Hg10 mi
1:00 AM52 °FClear.3 mph94%30.15 "Hg10 mi
12:00 AM54 °FClear.7 mph94%30.15 "Hg10 mi
11:00 PM
Fri, Jul 3
54 °FClear.6 mph94%30.15 "Hg10 mi
10:00 PM57 °FPassing clouds.8 mph82%30.15 "HgN/A
9:00 PM55 °FClear.9 mph94%30.15 "Hg10 mi
8:00 PM55 °FClear.10 mph94%30.15 "Hg10 mi
7:00 PM57 °FPassing clouds.9 mph88%30.15 "HgN/A
6:00 PM59 °FPassing clouds.8 mph82%30.15 "HgN/A
5:00 PM61 °FPassing clouds.7 mph77%30.15 "HgN/A
4:00 PM63 °FSunny.9 mph64%30.15 "Hg10 mi
3:00 PM64 °FPassing clouds.8 mph60%30.15 "HgN/A
2:00 PM64 °FPassing clouds.6 mph56%30.15 "HgN/A
1:00 PM64 °FPassing clouds.7 mph56%30.18 "HgN/A
12:00 PM61 °FSunny.7 mph63%30.18 "Hg10 mi
11:00 AM57 °FSunny.7 mph77%30.21 "Hg10 mi
10:00 AM52 °FSunny.2 mph94%30.18 "Hg10 mi
9:00 AM46 °FSunny.1 mph93%30.18 "Hg10 mi
8:00 AM46 °FSunny.5 mph87%30.18 "Hg10 mi
7:00 AM50 °FPassing clouds.5 mph88%30.15 "HgN/A
6:00 AM46 °FClear.5 mph100%30.15 "Hg10 mi
Weather by CustomWeather, © 2015

See weather overviewHow to use our weather pages